Showing default

FOSSASAT2E22, 66779

Orbit data source: Space-Track

FOSSASAT2E22, 66779 is a Spanish payload satellite in SSO that was launched on Fri, 28 Nov 2025 UTC via an FALCON 9 launch vehicle from the Air Force Western Test Range (AFWTR). Payload-class satellites include a variety of spacecraft equipped with specific instruments for various scientific and technological missions. These include communications satellites like Starlink; space stations such as the ISS; scientific satellites like the Hubble; Earth observation satellites from companies like Planet Labs, Umbra, and HawkEye 360; GPS; miniature CubeSats for education and research; and military/defense satellites.

Loading next visibility...
Identifier
66779, 2025-276DU
Orbit
SSO
Country
Flag of ESES / SPN
Related business
None
Manufacturer
Unknown
Mission
Operational Commercial Imaging
Bus & Motor
Unknown
Mass
Unknown
Launch date (UTC)
2025-11-28 (2 months ago)
Launch vehicle
FALCON 9
Launch site
Air Force Western Test Range (AFWTR)
Object type
Payload
Rocket body
Debris
Shape & HBR
Box, 0.2 m
Radar Cross Section
0.100 m²

Expand to show TLE details & history
Last TLE update: 4 hours ago

TLE from 4 hours ago
0 FOSSASAT2E22
1 66779U 25276DU  26035.16870122  .00006590  00000-0  33235-3 0  9999
2 66779  97.4314 110.9131 0004435 231.8504 128.2330 15.17460529 10224
Epoch: 2026-02-04T04:02Z
TLE epoch observation values (Epoch: 2026-02-04T04:02:55.785Z)
Latitude
-0.00006°
Longitude
-84.15848°
Altitude
518.498 km
Speed
7.603 km/s
True Right ascension
07h 23m 39s
True Declination
0° 00' 00"
Sunlit
Object was in full shadow at epoch
Visualization orbit readout
Latitude
Unknown
Longitude
Unknown
Altitude
Unknown
Speed
Unknown
Apparent Right ascension
Unknown
Apparent Declination
Unknown
Sunlit
N/A
Visualization observer readout
Local Sidereal Time
10:14:00
Azimuth
Unknown
Elevation
Unknown
Doppler factor
Unknown
Orbital elements
Apogee altitude
513.544 km
Perigee altitude
507.434 km
Semi-major axis
6,888.626 km
Eccentricity
0.00044
Inclination
97.4314°
RAAN
110.9131°
Arg. of periapsis
231.8504°
True anomaly
128.27291°
Mean anomaly
128.233°
Eccentric anomaly
128.25295°
Mean motion
3.79616 °/min
Orbital period
94.83 mins
BSTAR
0.00033235
Loading maneuver chart data...
Computing Atmospheric mass density...
Loading historical data...
Loading historical data...
Loading historical data...
Loading historical data...
Loading historical data...
Loading historical data...
Loading historical data...

Documentation

Showing up to 5 results
|